< < Back
Terminal Aerodrome Forecast


Current Version              Previous Versions:   1  2  3  4  5  6  7  8  9  

Terminal Aerodrome Forecast

164
FTUS44 KBMX 010500
TAFBHM
TAF
KBHM 010523Z 0106/0206 12003KT P6SM OVC150
     FM011500 16008KT P6SM -RA OVC050
     FM011800 19008KT 2SM RA BR OVC007=

Latest METAR

109
SAUS70 KWBC 010700 RRJ
MTRBHM
METAR KBHM 010653Z 13008KT 10SM BKN150 10/M05 A3019 RMK AO2 SLP223
T01001050


USA.gov is the U.S. government's official web portal to all federal, state and local government web resources and services.